一网星座-0138星 (ONEWEB-0138 )

导读 | 星芒AI

ONEWEB-0138 是 OneWeb 卫星星座计划中的一颗低轨通信卫星,旨在为全球提供高速互联网服务。该卫星由空中客车防务与航天公司制造,采用标准化设计以提高部署效率。它运行在约 1200 公里的近地轨道,与其他 OneWeb 卫星共同构建覆盖全球的宽带网络,特别服务于偏远和网络基础设施薄弱的地区。ONEWEB-0138 的发射进一步推动了 OneWeb 恢复运营并实现其全球连接目标的进程。

基本信息
目录编号:
47284
目录名称:
ONEWEB-0138
国际标识:
2020-100AC
轨道中心:
EARTH
卫星名称:
一网星座-0138星
卫星全名:
一网星座-0138星 (ONEWEB-0138 )
卫星状态:
在轨 (已飞行1765 天)
发射日期:
2020-12-18 UTC
国别 :
英国 (GB)
星等 :
--
轨道信息
数据来源 国际轨道数据
星历时间: 2025-10-18T04:19:05+0800
10小时前
查看轨道信息
半长轴: 7591.87km
偏心率: 0.0001907
轨道倾角: 87.897°
近地点辐角 104.991°
升交点赤经 38.801°
平近点角 255.143°
近地点: 1212.287km
远地点: 1215.183km
周期: 109.719分钟
每日圈数: 13.124406
详细信息
平衡模式:
三轴稳定
覆盖范围:
全球
运营商:
一网卫星公司
运营商所在国:
英国
制造商(研发单位):
一网卫星公司
制造商所在国:
英国
使用方式:
暂无
卫星简介
OneWeb卫星网络由648颗重约125公斤的微型卫星组成,运行在1200公里的轨道上。 每颗卫星都能够提供至少每秒8千兆位的吞吐量,以使用其高吞吐量的Ku频段有效载荷为家庭和移动平台提供互联网接入。该卫星仍在工作。
2D轨道图
3D轨道图
轨道高度分析图
轨道倾角分析图
轨道综合分析图
查看轨道综合分析图